Theta_e
341 345 345 344 345 344 344 342 336 336 335 336 329 324 320 322 332 335 337 341 335 329 335 338 334 342 345 343 342 340 341 345 347 345 341 339 342 345 344 344 346 347 346
342 342 344 344 344 343 343 342 342 339 339 341 338 332 333 343 346 345 344 340 336 333 338 339 336 338 345 346 343 339 338 338 341 341 344 341 338 344 343 342 347 345 342
342 342 343 343 344 343 342 341 341 341 342 339 337 334 343 346 345 344 344 345 346 345 345 346 345 340 340 344 340 337 339 339 336 336 342 342 343 344 344 343 342 343 341
343 341 340 344 343 342 341 336 339 340 337 338 336 339 343 343 344 344 343 344 344 343 343 343 344 343 336 338 337 338 338 338 337 341 342 341 341 340 343 343 342 342 342
343 341 342 344 342 341 334 334 336 332 332 330 330 335 338 338 340 339 339 342 339 335 331 331 332 334 333 335 338 336 337 337 337 342 340 341 342 339 340 342 343 341 343
341 339 343 343 342 338 332 328 328 327 328 331 333 336 341 337 335 335 335 335 334 328 325 328 329 331 333 336 337 334 336 337 342 341 342 339 341 341 341 338 340 342 342
338 340 341 343 341 333 324 324 325 326 327 329 334 341 339 335 334 335 332 329 327 332 329 327 327 330 331 330 332 333 336 338 340 340 340 340 341 339 339 337 337 340 340
337 337 341 340 338 329 321 323 324 326 327 329 330 332 332 331 331 330 327 328 331 334 333 331 330 328 328 329 332 336 337 338 339 338 339 340 335 335 336 336 336 337 339
336 337 338 337 336 326 321 323 324 327 327 328 327 328 328 327 327 327 327 328 329 328 328 330 331 334 335 336 335 335 332 332 336 336 337 338 335 335 335 335 335 336 337
335 336 336 334 334 334 331 323 325 328 329 329 329 329 328 328 325 327 328 329 329 328 327 328 330 331 330 331 332 333 331 332 332 334 335 337 338 339 335 334 335 335 336
335 335 336 334 334 333 331 330 327 329 330 331 332 331 336 337 337 338 329 328 329 330 327 326 327 330 332 330 330 329 332 330 330 331 335 336 337 339 339 336 334 335 336
335 335 336 335 332 332 332 331 333 335 336 337 337 338 338 339 338 337 335 328 329 331 329 327 327 328 336 335 333 331 329 329 328 329 333 333 332 337 337 338 336 335 336
333 335 336 336 333 332 332 333 333 334 337 339 340 340 340 339 339 339 338 339 338 334 335 332 331 332 334 333 331 329 328 327 327 326 330 331 332 333 335 335 334 335 338
334 334 337 336 335 333 332 334 333 333 335 336 338 340 340 341 341 341 339 339 339 337 336 332 332 333 334 334 330 328 328 328 327 326 331 321 329 328 329 332 334 332 334
334 334 336 337 336 334 334 333 333 332 333 335 338 339 340 341 344 342 341 339 338 338 336 332 332 333 333 333 331 330 331 330 329 326 327 324 316 323 323 328 328 332 331
334 335 335 338 338 335 334 334 335 333 334 337 339 340 341 342 344 344 343 340 338 335 335 333 331 333 334 333 333 332 331 331 330 329 327 329 319 320 324 325 326 326 329
338 338 337 337 338 338 335 334 334 334 335 337 339 340 342 344 344 345 343 341 341 337 336 336 333 333 334 333 333 333 332 332 331 330 329 328 329 325 320 326 326 326 325
339 340 341 336 339 340 337 334 334 335 336 337 340 341 344 344 344 344 342 340 338 338 337 336 335 334 334 334 333 333 332 331 332 331 330 329 329 328 328 321 325 326 326
342 341 343 341 338 342 341 337 336 335 337 338 339 341 342 343 344 344 343 340 343 339 338 337 335 335 335 334 333 332 332 332 332 331 330 330 329 328 328 328 320 325 325
343 343 345 345 343 341 342 342 339 338 337 337 339 340 341 343 344 345 341 343 342 340 338 338 337 336 335 335 332 331 332 332 332 332 332 331 330 329 329 328 328 327 323
345 345 346 347 347 346 343 343 342 341 339 339 339 340 341 343 345 347 342 344 342 341 341 341 339 338 336 335 334 333 333 333 334 333 332 331 330 329 329 329 328 329 328
345 345 346 347 349 349 346 344 343 343 342 342 342 343 343 344 345 345 345 343 343 340 342 341 340 338 336 336 335 334 337 334 333 332 332 331 331 330 329 329 328 328 329
344 345 346 347 348 349 347 346 346 346 346 346 345 346 346 346 346 346 346 345 343 342 341 342 340 339 336 336 336 335 335 335 333 332 334 332 331 331 331 329 329 328 328
344 344 345 347 348 349 348 345 346 346 346 345 346 346 346 347 347 346 345 344 345 341 341 341 340 339 339 336 336 335 335 334 337 336 333 334 334 333 332 331 330 329 329
343 343 345 347 348 348 348 346 347 346 345 348 349 348 348 345 344 345 346 343 345 344 342 341 340 339 337 337 337 337 337 336 336 337 338 333 334 334 333 331 331 331 330
343 343 343 346 347 347 348 348 347 347 348 349 349 348 348 345 346 343 345 346 344 344 339 338 341 340 338 337 337 337 336 336 336 335 338 334 333 331 331 331 331 330 330
Wind_Speed
15 15 14 12 12 11 11 11 11 12 13 13 12 12 13 14 15 14 12 10 8 8 7 7 7 8 8 8 8 8 9 10 9 8 9 9 8 7 7 10 5 8 9
18 16 16 13 13 12 12 12 13 14 14 13 13 13 14 15 14 12 13 13 12 10 9 8 7 8 8 7 8 8 8 8 7 7 7 8 8 7 6 6 9 8 8
18 17 15 14 14 13 13 13 14 15 14 14 13 15 15 13 14 15 15 15 13 12 10 8 7 7 7 7 7 7 7 6 7 8 8 6 7 5 4 5 5 6 6
17 16 14 15 14 13 13 14 15 15 15 14 14 15 15 14 13 13 13 14 14 12 10 9 8 8 7 7 7 6 4 4 5 4 3 7 8 5 5 4 4 5 5
17 16 15 15 14 12 13 14 15 15 14 15 15 15 15 15 13 13 14 14 13 12 11 10 10 8 9 8 8 7 5 3 5 4 6 8 8 6 5 4 4 3 6
17 15 15 15 13 12 13 15 15 15 15 14 14 15 15 14 13 13 14 13 12 12 11 11 9 8 8 8 6 7 6 7 3 8 6 7 8 6 5 3 2 2 3
18 16 15 14 13 12 13 15 15 16 15 14 14 14 14 14 14 13 13 12 13 13 12 10 9 8 7 6 6 6 5 6 4 7 6 5 7 4 5 5 3 2 2
17 17 15 15 13 13 14 15 16 15 14 14 14 14 14 13 13 13 13 13 15 15 15 13 11 10 9 9 8 7 6 5 4 8 7 11 7 5 4 4 3 3 1
16 17 17 15 13 13 14 15 16 16 15 15 15 14 13 13 13 12 12 13 13 13 13 13 13 10 11 11 9 8 8 6 5 6 6 8 8 6 5 5 4 4 2
16 16 17 16 14 13 12 16 15 16 16 15 14 13 12 12 12 12 10 10 9 10 10 10 11 10 11 9 8 9 8 7 5 6 8 7 9 8 6 4 5 6 6
15 15 16 16 15 13 12 13 16 16 14 13 12 11 8 6 7 8 8 7 7 8 8 7 6 7 9 10 7 9 6 6 7 6 9 6 9 9 8 6 4 5 8
17 16 16 16 16 14 12 12 12 12 11 9 8 8 6 6 5 5 6 6 4 6 7 8 7 4 2 4 6 3 5 5 5 5 5 6 6 8 8 7 7 6 8
18 17 16 16 16 15 14 13 12 12 10 9 8 7 6 5 4 3 4 7 3 4 2 6 6 3 4 3 5 5 5 4 6 5 5 7 7 6 6 5 6 8 9
18 18 17 17 16 15 13 13 12 12 12 10 9 8 6 5 4 2 1 2 1 2 3 6 7 5 5 4 4 6 5 6 7 6 5 6 5 6 5 4 4 4 6
18 19 19 18 17 15 14 14 12 11 11 9 9 9 7 4 2 2 1 1 1 0 2 3 4 3 4 3 1 2 3 5 6 6 4 5 1 1 1 1 2 3 4
18 18 19 20 18 16 15 13 12 11 11 11 10 9 8 5 3 2 3 3 3 1 3 1 2 1 1 2 2 1 2 3 3 4 4 2 4 0 1 4 4 4 4
18 18 20 19 18 17 15 13 12 11 11 11 10 10 10 8 6 4 2 4 3 3 5 4 3 2 2 2 3 4 4 3 3 3 3 3 1 3 1 3 4 5 7
17 18 18 18 18 17 16 15 13 12 12 11 9 9 10 10 8 5 4 2 2 4 4 4 4 4 4 3 4 5 4 5 4 4 5 4 3 1 4 3 5 6 6
20 18 19 19 19 18 17 15 14 13 13 12 11 11 10 10 8 8 6 4 5 4 4 5 6 5 4 5 6 6 7 8 7 7 8 8 7 6 5 8 7 9 10
21 21 19 20 19 19 17 16 15 15 14 14 13 13 11 9 10 9 8 7 6 6 5 6 6 5 5 5 6 5 7 9 10 11 11 11 11 11 10 9 8 10 12
23 22 23 22 23 21 21 20 19 18 16 15 15 14 13 11 10 11 10 9 8 8 7 7 7 7 7 5 6 8 9 10 12 13 13 14 13 14 14 14 13 11 13
25 26 25 26 25 24 21 19 18 16 15 13 13 12 14 14 13 13 13 12 12 10 9 9 8 7 6 5 6 7 6 1 8 7 10 14 15 14 16 18 17 17 15
25 25 27 29 28 26 23 18 15 11 11 12 14 13 13 14 14 14 13 13 12 11 9 8 9 9 7 6 8 7 3 4 8 10 9 11 12 14 15 17 19 19 19
27 26 26 26 27 25 23 21 20 16 15 14 13 11 11 14 15 15 14 13 13 11 9 7 7 7 8 7 6 9 10 12 7 7 6 11 13 14 16 18 18 20 22
28 26 26 25 25 24 24 22 20 18 14 12 11 10 12 15 15 14 14 14 14 11 8 7 6 7 8 11 8 7 9 12 13 8 10 14 7 13 15 16 19 20 22
28 27 24 22 23 23 23 23 20 15 13 10 10 11 10 13 14 15 14 14 11 10 11 11 10 10 9 9 9 8 10 8 10 11 7 15 15 20 15 14 15 20 22
Wind_Direction
149 147 150 142 137 132 125 118 112 109 104 102 98 93 91 88 85 80 77 80 84 91 93 93 98 105 93 93 92 85 85 89 85 81 82 81 79 82 84 97 102 101 105
142 144 145 145 138 135 133 126 119 110 104 100 98 94 93 88 77 79 76 78 78 81 87 91 97 115 111 102 92 86 81 81 82 80 75 59 67 63 76 102 83 104 115
140 144 143 141 142 144 138 126 119 113 111 107 102 100 97 83 89 83 86 84 82 77 81 91 96 108 119 107 97 90 83 81 76 71 72 60 63 82 69 85 100 105 118
141 142 147 147 148 143 133 124 121 119 115 113 111 110 104 102 97 94 91 86 84 81 80 81 86 106 118 116 104 78 70 80 81 61 52 55 68 58 65 71 93 111 110
143 146 153 148 148 141 132 127 123 120 117 112 109 108 102 105 101 94 89 84 79 75 72 75 82 102 118 119 105 70 65 108 106 42 65 59 57 49 62 74 43 89 125
146 146 151 150 150 141 137 133 129 122 116 112 110 108 104 104 103 95 88 81 74 71 76 75 73 85 101 107 95 70 79 90 115 94 59 45 39 45 44 51 98 155 162
148 146 150 150 150 145 142 138 132 125 120 115 111 110 108 105 102 98 91 84 77 71 73 77 80 85 96 104 101 84 88 89 85 64 63 41 44 36 36 43 44 95 158
150 149 154 156 155 152 148 145 136 130 125 120 115 112 109 107 107 103 95 89 84 80 74 71 71 82 83 94 99 83 85 101 74 57 43 64 39 41 47 50 52 60 133
155 154 156 159 162 158 156 152 144 135 130 125 122 118 112 110 106 103 99 92 81 74 69 74 74 77 88 95 91 86 78 68 52 60 42 47 41 58 65 64 68 79 126
162 162 162 163 163 163 167 160 150 143 139 135 130 126 117 109 103 95 92 100 90 72 65 69 82 87 82 81 84 86 74 57 47 51 71 49 55 56 63 81 100 103 117
171 169 169 167 170 170 168 171 160 157 151 145 135 132 113 126 119 108 131 115 93 72 60 64 72 100 94 89 82 82 71 37 45 44 66 76 63 63 63 73 96 117 131
177 177 177 175 175 173 171 174 175 172 167 173 166 163 153 141 139 118 133 121 114 90 59 56 39 102 87 108 95 61 44 50 44 36 67 59 69 71 77 77 86 109 123
178 182 184 181 183 181 179 178 182 184 186 188 188 182 174 165 161 144 154 164 128 48 96 44 44 105 93 82 58 36 41 44 40 40 48 44 44 56 68 93 106 121 121
183 187 189 188 190 191 187 185 187 189 190 188 194 199 200 199 188 195 104 71 139 53 40 31 56 88 116 112 77 70 64 44 38 39 53 26 44 27 35 69 103 126 151
187 189 192 193 193 197 197 195 193 194 195 194 194 202 202 206 216 194 168 134 114 64 90 55 61 82 133 145 87 71 57 52 46 41 59 7 81 111 55 110 128 101 138
190 191 194 197 199 198 204 203 198 198 196 198 201 204 211 213 223 226 204 184 167 161 172 137 82 32 325 237 187 254 300 7 33 28 35 40 3 121 147 175 186 186 189
193 189 196 198 200 202 205 210 207 204 204 205 208 213 213 217 232 234 223 221 203 189 192 206 208 230 268 271 245 236 245 252 296 318 335 2 357 347 236 205 211 208 205
201 196 197 199 201 204 205 210 211 209 208 215 216 223 229 234 243 235 240 229 186 216 231 230 233 239 256 244 242 245 242 240 244 257 270 275 282 301 298 223 215 221 227
206 203 201 201 203 205 210 210 213 215 211 217 220 225 232 238 242 233 223 221 220 236 234 232 236 255 243 250 245 234 247 254 253 251 234 236 239 233 234 253 236 214 215
211 211 208 207 207 207 209 212 216 220 220 222 227 232 232 237 233 225 227 224 222 228 230 240 246 244 263 265 279 275 258 259 257 257 254 247 243 236 232 223 227 235 220
213 211 212 210 209 203 206 209 214 218 221 225 231 230 230 232 229 224 233 230 227 228 230 223 230 229 240 237 265 255 250 249 254 259 253 249 246 242 239 233 227 232 228
213 213 213 214 211 208 210 214 219 229 231 231 230 225 220 220 219 219 230 236 229 226 222 216 223 231 236 234 276 297 271 345 222 255 254 252 250 248 246 239 234 229 230
211 210 213 213 210 209 209 209 212 225 229 222 221 224 229 220 217 221 227 235 240 231 218 218 222 221 237 205 242 276 297 256 305 296 234 252 260 257 253 251 246 241 236
212 213 214 211 208 208 205 208 209 217 229 229 229 224 228 226 222 223 227 224 225 237 243 223 223 240 248 246 203 243 256 273 292 296 237 240 246 255 259 259 251 245 241
208 208 210 206 206 203 204 204 211 221 233 236 236 232 230 236 243 233 221 223 225 234 243 241 234 234 238 260 240 228 253 264 271 275 289 293 221 260 258 257 256 255 246
205 205 206 203 205 200 196 199 205 211 225 238 238 240 236 244 240 243 231 227 231 235 240 230 217 223 228 247 254 263 273 278 278 274 271 277 283 286 287 254 259 262 259